Regional Weather Roundup
Issued by NWS

Home | Current Version | Previous Version | Text Only | Print | Product List | Glossary Off
Versions: 1 2 3 4 5 6 7 8 9 10 11 12 13 14 15 16 17 18 19 20 21 22 23 24 25 26 27 28 29 30 31 32 33 34 35 36 37 38 39 40 41 42 43 44 45 46 47 48 49 50

000
ASUS43 KBIS 292102
RWRND

NORTH DAKOTA REGIONAL WEATHER ROUNDUP
NATIONAL WEATHER SERVICE BISMARCK ND
400 PM CDT SAT APR 29 2017

NOTE: "FAIR" INDICATES FEW OR NO CLOUDS BELOW 12,000 FEET WITH NO
SIGNIFICANT WEATHER AND/OR OBSTRUCTIONS TO VISIBILITY.


NDZ001>003-009>011-017-292200-
NORTHWEST NORTH DAKOTA

CITY           SKY/WX    TMP DP  RH WIND       PRES   REMARKS
WILLISTON      FAIR      61  32  33 S9        30.20F
MINOT          PTSUNNY   63  25  23 SW9       30.19F
MINOT AFB      PTSUNNY   62  26  25 SW15      30.18F
$$

NDZ018>021-031>035-040>046-292200-
SOUTHWEST NORTH DAKOTA

CITY           SKY/WX    TMP DP  RH WIND       PRES   REMARKS
BISMARCK       FAIR      63  17  17 VRB3      30.26S
DICKINSON      FAIR      57  19  22 MISG      30.20F
GARRISON         N/A     61  22  22 W6G18     30.21F
HETTINGER ARPT SUNNY     57  19  22 NW6       30.24F
$$

NDZ004>008-012>016-024-026-027-054-292200-
NORTHEAST NORTH DAKOTA

CITY           SKY/WX    TMP DP  RH WIND       PRES   REMARKS
GRAND FORKS    PTSUNNY   60  24  25 VRB6      30.31R
GRND FRKS AFB  SUNNY     58  20  22 CALM      30.31R
DEVILS LAKE    FAIR      59  16  18 SW7       30.27S
$$

NDZ022-023-025-028>030-036>039-047>053-292200-
SOUTHEAST NORTH DAKOTA

CITY           SKY/WX    TMP DP  RH WIND       PRES   REMARKS
FARGO          MOSUNNY   60  20  21 VRB5      30.31S
JAMESTOWN      FAIR      58  16  19 CALM      30.28R
$$





USA.gov is the U.S. government's official web portal to all federal, state and local government web resources and services.